Time,TemperatureF,DewpointF,PressureIn,WindDirection,WindDirectionDegrees,WindSpeedMPH,WindSpeedGustMPH,Humidity,HourlyPrecipIn,Conditions,Clouds,dailyrainin,SoftwareType,DateUTC
2013-08-09 00:00:00,76.9,75.1,30.00,ENE,61,3.0,5.0,94,0.00,,---,0.56,VWS V14.01,2013-08-09 04:00:00,
2013-08-09 00:01:00,77.0,75.1,30.00,NE,46,2.0,3.0,94,0.00,,---,0.00,VWS V14.01,2013-08-09 04:01:00,
2013-08-09 00:06:00,77.3,75.1,30.00,NE,48,2.0,5.0,93,0.00,,---,0.00,VWS V14.01,2013-08-09 04:06:00,
2013-08-09 00:11:00,77.6,75.1,30.00,NE,51,2.0,5.0,92,0.00,,---,0.00,VWS V14.01,2013-08-09 04:11:00,
2013-08-09 00:16:00,77.8,75.3,30.00,NE,38,3.0,6.0,92,0.00,,---,0.00,VWS V14.01,2013-08-09 04:16:00,
2013-08-09 00:21:00,78.0,74.8,30.00,ENE,65,4.0,8.0,90,0.00,,---,0.00,VWS V14.01,2013-08-09 04:21:00,
2013-08-09 00:26:00,78.2,75.4,30.00,ENE,61,4.0,8.0,91,0.00,,---,0.00,VWS V14.01,2013-08-09 04:26:00,
2013-08-09 00:30:00,78.2,75.4,30.00,NE,53,5.0,8.0,91,0.00,,---,0.00,VWS V14.01,2013-08-09 04:30:00,
2013-08-09 00:31:00,78.3,75.1,29.99,NNE,28,4.0,6.0,90,0.00,,---,0.00,VWS V14.01,2013-08-09 04:31:00,
2013-08-09 00:36:00,78.3,75.1,29.99,NE,51,7.0,7.0,90,0.00,,---,0.00,VWS V14.01,2013-08-09 04:36:00,
2013-08-09 00:41:00,78.4,75.2,29.99,NNE,23,3.0,9.0,90,0.00,,---,0.00,VWS V14.01,2013-08-09 04:41:00,
2013-08-09 00:46:00,78.5,75.3,29.99,NE,38,5.0,10.0,90,0.00,,---,0.00,VWS V14.01,2013-08-09 04:46:00,
2013-08-09 00:51:00,78.6,75.4,29.99,NE,42,2.0,10.0,90,0.00,,---,0.00,VWS V14.01,2013-08-09 04:51:00,
2013-08-09 00:56:00,78.7,75.5,29.99,NE,51,4.0,10.0,90,0.00,,---,0.00,VWS V14.01,2013-08-09 04:56:00,
2013-08-09 01:00:00,78.6,75.1,29.99,East,92,6.0,10.0,89,0.00,,---,0.00,VWS V14.01,2013-08-09 05:00:00,
2013-08-09 01:01:00,78.6,75.1,29.99,ENE,63,5.0,7.0,89,0.00,,---,0.00,VWS V14.01,2013-08-09 05:01:00,
2013-08-09 01:06:00,78.5,75.0,29.99,East,84,9.0,10.0,89,0.00,,---,0.00,VWS V14.01,2013-08-09 05:06:00,
2013-08-09 01:11:00,78.4,75.2,29.99,East,89,4.0,10.0,90,0.00,,---,0.00,VWS V14.01,2013-08-09 05:11:00,
2013-08-09 01:16:00,78.3,75.1,29.99,East,84,4.0,10.0,90,0.00,,---,0.00,VWS V14.01,2013-08-09 05:16:00,
2013-08-09 01:21:00,78.2,75.0,29.99,NE,44,6.0,10.0,90,0.00,,---,0.00,VWS V14.01,2013-08-09 05:21:00,
2013-08-09 01:26:00,78.2,75.0,29.99,ENE,63,8.0,10.0,90,0.00,,---,0.00,VWS V14.01,2013-08-09 05:26:00,
2013-08-09 01:30:00,78.2,75.0,29.99,East,92,7.0,10.0,90,0.00,,---,0.00,VWS V14.01,2013-08-09 05:30:00,
2013-08-09 01:31:00,78.2,75.4,29.98,East,91,6.0,10.0,91,0.00,,---,0.00,VWS V14.01,2013-08-09 05:31:00,
2013-08-09 01:36:00,78.2,75.4,29.98,NE,55,4.0,10.0,91,0.00,,---,0.00,VWS V14.01,2013-08-09 05:36:00,
2013-08-09 01:41:00,78.2,75.4,29.98,ESE,102,6.0,10.0,91,0.00,,---,0.00,VWS V14.01,2013-08-09 05:41:00,
2013-08-09 01:46:00,78.2,75.4,29.98,East,82,4.0,10.0,91,0.00,,---,0.00,VWS V14.01,2013-08-09 05:46:00,
2013-08-09 01:51:00,78.2,75.4,29.98,ESE,119,3.0,10.0,91,0.00,,---,0.00,VWS V14.01,2013-08-09 05:51:00,
2013-08-09 01:56:00,78.2,75.4,29.98,NE,53,4.0,10.0,91,0.00,,---,0.00,VWS V14.01,2013-08-09 05:56:00,
2013-08-09 02:00:00,78.2,75.4,29.98,East,94,3.0,10.0,91,0.00,,---,0.00,VWS V14.01,2013-08-09 06:00:00,
2013-08-09 02:01:00,78.2,75.4,29.98,SE,143,5.0,9.0,91,0.00,,---,0.00,VWS V14.01,2013-08-09 06:01:00,
2013-08-09 02:06:00,78.1,74.9,29.98,East,96,3.0,9.0,90,0.00,,---,0.00,VWS V14.01,2013-08-09 06:06:00,
2013-08-09 02:11:00,78.1,75.3,29.98,SE,127,5.0,9.0,91,0.00,,---,0.00,VWS V14.01,2013-08-09 06:11:00,
2013-08-09 02:16:00,78.1,75.3,29.98,ESE,119,4.0,9.0,91,0.00,,---,0.00,VWS V14.01,2013-08-09 06:16:00,
2013-08-09 02:21:00,78.0,74.8,29.98,ENE,67,3.0,9.0,90,0.00,,---,0.00,VWS V14.01,2013-08-09 06:21:00,
2013-08-09 02:26:00,78.0,75.2,29.98,NE,53,7.0,9.0,91,0.00,,---,0.00,VWS V14.01,2013-08-09 06:26:00,
2013-08-09 02:30:00,78.0,75.2,29.97,East,92,4.0,9.0,91,0.00,,---,0.00,VWS V14.01,2013-08-09 06:30:00,
2013-08-09 02:31:00,78.0,75.2,29.97,East,96,4.0,8.0,91,0.00,,---,0.00,VWS V14.01,2013-08-09 06:31:00,
2013-08-09 02:36:00,78.0,75.2,29.97,ESE,114,6.0,8.0,91,0.00,,---,0.00,VWS V14.01,2013-08-09 06:36:00,
2013-08-09 02:41:00,78.0,75.2,29.97,ESE,108,3.0,10.0,91,0.00,,---,0.00,VWS V14.01,2013-08-09 06:41:00,
2013-08-09 02:46:00,78.0,75.2,29.97,ESE,121,7.0,10.0,91,0.00,,---,0.00,VWS V14.01,2013-08-09 06:46:00,
2013-08-09 02:51:00,78.0,75.2,29.97,ENE,64,4.0,10.0,91,0.00,,---,0.00,VWS V14.01,2013-08-09 06:51:00,
2013-08-09 02:56:00,77.9,75.1,29.97,ENE,69,2.0,10.0,91,0.00,,---,0.00,VWS V14.01,2013-08-09 06:56:00,
2013-08-09 03:00:00,77.8,75.0,29.97,NE,51,4.0,10.0,91,0.00,,---,0.00,VWS V14.01,2013-08-09 07:00:00,
2013-08-09 03:01:00,77.8,75.0,29.97,ESE,112,2.0,7.0,91,0.00,,---,0.00,VWS V14.01,2013-08-09 07:01:00,
2013-08-09 03:06:00,77.8,75.0,29.96,NE,42,3.0,7.0,91,0.00,,---,0.00,VWS V14.01,2013-08-09 07:06:00,
2013-08-09 03:11:00,77.7,74.9,29.96,NE,55,3.0,7.0,91,0.00,,---,0.00,VWS V14.01,2013-08-09 07:11:00,
2013-08-09 03:16:00,77.7,74.9,29.96,East,91,3.0,8.0,91,0.00,,---,0.00,VWS V14.01,2013-08-09 07:16:00,
2013-08-09 03:21:00,77.8,75.0,29.96,ENE,70,4.0,8.0,91,0.00,,---,0.00,VWS V14.01,2013-08-09 07:21:00,
2013-08-09 03:26:00,77.8,75.0,29.96,ESE,109,3.0,8.0,91,0.00,,---,0.00,VWS V14.01,2013-08-09 07:26:00,
2013-08-09 03:30:00,77.8,75.0,29.96,NE,53,2.0,8.0,91,0.00,,---,0.00,VWS V14.01,2013-08-09 07:30:00,
2013-08-09 03:31:00,77.8,75.0,29.96,East,89,4.0,7.0,91,0.00,,---,0.00,VWS V14.01,2013-08-09 07:31:00,
2013-08-09 03:36:00,77.8,75.0,29.96,ENE,76,1.0,7.0,91,0.00,,---,0.00,VWS V14.01,2013-08-09 07:36:00,
2013-08-09 03:41:00,77.8,75.0,29.96,East,94,6.0,7.0,91,0.00,,---,0.00,VWS V14.01,2013-08-09 07:41:00,
2013-08-09 03:46:00,77.8,75.0,29.96,East,94,4.0,7.0,91,0.00,,---,0.00,VWS V14.01,2013-08-09 07:46:00,
2013-08-09 03:51:00,77.7,74.9,29.96,ESE,118,3.0,7.0,91,0.00,,---,0.00,VWS V14.01,2013-08-09 07:51:00,
2013-08-09 03:56:00,77.6,75.1,29.95,ENE,74,5.0,7.0,92,0.00,,---,0.00,VWS V14.01,2013-08-09 07:56:00,
2013-08-09 04:00:00,77.6,75.1,29.95,ENE,74,2.0,7.0,92,0.00,,---,0.00,VWS V14.01,2013-08-09 08:00:00,
2013-08-09 04:01:00,77.6,75.1,29.95,ESE,108,4.0,4.0,92,0.00,,---,0.00,VWS V14.01,2013-08-09 08:01:00,
2013-08-09 04:06:00,77.6,74.8,29.95,ENE,63,4.0,8.0,91,0.00,,---,0.00,VWS V14.01,2013-08-09 08:06:00,
2013-08-09 04:11:00,77.6,75.1,29.95,ENE,67,3.0,8.0,92,0.00,,---,0.00,VWS V14.01,2013-08-09 08:11:00,
2013-08-09 04:16:00,77.6,75.1,29.95,ESE,115,3.0,8.0,92,0.00,,---,0.00,VWS V14.01,2013-08-09 08:16:00,
2013-08-09 04:21:00,77.5,75.0,29.95,ENE,63,4.0,8.0,92,0.00,,---,0.00,VWS V14.01,2013-08-09 08:21:00,
2013-08-09 04:26:00,77.4,74.9,29.95,ENE,69,2.0,8.0,92,0.00,,---,0.00,VWS V14.01,2013-08-09 08:26:00,
2013-08-09 04:30:00,77.4,74.9,29.95,SSE,155,2.0,8.0,92,0.00,,---,0.00,VWS V14.01,2013-08-09 08:30:00,
2013-08-09 04:31:00,77.4,74.9,29.95,ESE,123,1.0,6.0,92,0.00,,---,0.00,VWS V14.01,2013-08-09 08:31:00,
2013-08-09 04:36:00,77.4,74.9,29.95,ESE,119,3.0,6.0,92,0.00,,---,0.00,VWS V14.01,2013-08-09 08:36:00,
2013-08-09 04:41:00,77.3,74.8,29.95,East,84,3.0,7.0,92,0.00,,---,0.00,VWS V14.01,2013-08-09 08:41:00,
2013-08-09 04:46:00,77.3,75.1,29.95,East,84,5.0,7.0,93,0.00,,---,0.00,VWS V14.01,2013-08-09 08:46:00,
2013-08-09 04:51:00,77.2,75.0,29.95,East,92,2.0,7.0,93,0.00,,---,0.00,VWS V14.01,2013-08-09 08:51:00,
2013-08-09 04:56:00,77.3,75.1,29.94,ENE,59,3.0,7.0,93,0.00,,---,0.00,VWS V14.01,2013-08-09 08:56:00,
2013-08-09 05:00:00,77.3,75.1,29.95,ENE,67,4.0,8.0,93,0.00,,---,0.00,VWS V14.01,2013-08-09 09:00:00,
2013-08-09 05:01:00,77.3,75.1,29.95,ESE,103,6.0,6.0,93,0.00,,---,0.00,VWS V14.01,2013-08-09 09:01:00,
2013-08-09 05:06:00,77.3,74.8,29.95,ENE,69,4.0,10.0,92,0.00,,---,0.00,VWS V14.01,2013-08-09 09:06:00,
2013-08-09 05:11:00,77.4,74.9,29.94,ENE,72,6.0,10.0,92,0.00,,---,0.00,VWS V14.01,2013-08-09 09:11:00,
2013-08-09 05:16:00,77.5,75.0,29.94,East,80,9.0,10.0,92,0.00,,---,0.00,VWS V14.01,2013-08-09 09:16:00,
2013-08-09 05:21:00,77.5,75.0,29.94,East,85,5.0,10.0,92,0.00,,---,0.00,VWS V14.01,2013-08-09 09:21:00,
2013-08-09 05:26:00,77.5,75.0,29.94,East,94,6.0,10.0,92,0.00,,---,0.00,VWS V14.01,2013-08-09 09:26:00,
2013-08-09 05:30:00,77.5,75.0,29.94,ENE,77,8.0,10.0,92,0.00,,---,0.00,VWS V14.01,2013-08-09 09:30:00,
2013-08-09 05:31:00,77.6,75.1,29.94,NE,54,6.0,10.0,92,0.00,,---,0.00,VWS V14.01,2013-08-09 09:31:00,
2013-08-09 05:36:00,77.6,75.4,29.95,NE,53,4.0,10.0,93,0.00,,---,0.00,VWS V14.01,2013-08-09 09:36:00,
2013-08-09 05:41:00,77.6,75.1,29.95,ENE,74,7.0,10.0,92,0.00,,---,0.00,VWS V14.01,2013-08-09 09:41:00,
2013-08-09 05:46:00,77.6,75.1,29.94,NE,42,5.0,10.0,92,0.00,,---,0.00,VWS V14.01,2013-08-09 09:46:00,
2013-08-09 05:51:00,77.6,75.1,29.95,East,80,3.0,11.0,92,0.00,,---,0.00,VWS V14.01,2013-08-09 09:51:00,
2013-08-09 05:56:00,77.6,75.1,29.95,ENE,69,5.0,11.0,92,0.00,,---,0.00,VWS V14.01,2013-08-09 09:56:00,
2013-08-09 06:00:00,77.5,75.0,29.95,ENE,67,3.0,11.0,92,0.00,,---,0.00,VWS V14.01,2013-08-09 10:00:00,
2013-08-09 06:01:00,77.5,75.0,29.95,ESE,118,3.0,8.0,92,0.00,,---,0.00,VWS V14.01,2013-08-09 10:01:00,
2013-08-09 06:06:00,77.4,74.9,29.95,East,86,5.0,9.0,92,0.00,,---,0.00,VWS V14.01,2013-08-09 10:06:00,
2013-08-09 06:11:00,77.4,75.2,29.95,East,95,7.0,9.0,93,0.00,,---,0.00,VWS V14.01,2013-08-09 10:11:00,
2013-08-09 06:16:00,77.3,75.1,29.95,ENE,78,5.0,9.0,93,0.00,,---,0.00,VWS V14.01,2013-08-09 10:16:00,
2013-08-09 06:21:00,77.2,75.0,29.95,NE,35,6.0,9.0,93,0.00,,---,0.00,VWS V14.01,2013-08-09 10:21:00,
2013-08-09 06:26:00,77.1,74.9,29.95,East,79,2.0,9.0,93,0.00,,---,0.00,VWS V14.01,2013-08-09 10:26:00,
2013-08-09 06:30:00,77.1,74.9,29.95,ENE,71,5.0,9.0,93,0.00,,---,0.00,VWS V14.01,2013-08-09 10:30:00,
2013-08-09 06:31:00,77.1,74.9,29.96,ESE,113,2.0,6.0,93,0.00,,---,0.00,VWS V14.01,2013-08-09 10:31:00,
2013-08-09 06:36:00,77.1,74.9,29.96,East,89,3.0,7.0,93,0.00,,---,0.00,VWS V14.01,2013-08-09 10:36:00,
2013-08-09 06:41:00,77.2,75.0,29.96,East,84,5.0,9.0,93,0.00,,---,0.00,VWS V14.01,2013-08-09 10:41:00,
2013-08-09 06:46:00,77.2,75.0,29.96,East,86,5.0,9.0,93,0.00,,---,0.00,VWS V14.01,2013-08-09 10:46:00,
2013-08-09 06:51:00,77.2,75.0,29.96,ENE,74,4.0,9.0,93,0.00,,---,0.00,VWS V14.01,2013-08-09 10:51:00,
2013-08-09 06:56:00,77.3,75.1,29.96,ENE,62,3.0,9.0,93,0.00,,---,0.00,VWS V14.01,2013-08-09 10:56:00,
2013-08-09 07:00:00,77.3,75.1,29.96,ENE,69,5.0,9.0,93,0.00,,---,0.00,VWS V14.01,2013-08-09 11:00:00,
2013-08-09 07:01:00,77.3,75.1,29.96,NE,41,2.0,4.0,93,0.00,,---,0.00,VWS V14.01,2013-08-09 11:01:00,
2013-08-09 07:06:00,77.5,75.0,29.97,East,86,5.0,8.0,92,0.00,,---,0.00,VWS V14.01,2013-08-09 11:06:00,
2013-08-09 07:11:00,77.6,75.1,29.97,ENE,76,2.0,8.0,92,0.00,,---,0.00,VWS V14.01,2013-08-09 11:11:00,
2013-08-09 07:16:00,77.7,75.2,29.97,NE,52,3.0,8.0,92,0.00,,---,0.00,VWS V14.01,2013-08-09 11:16:00,
2013-08-09 07:21:00,77.8,75.0,29.97,ENE,66,4.0,8.0,91,0.00,,---,0.00,VWS V14.01,2013-08-09 11:21:00,
2013-08-09 07:26:00,77.9,75.4,29.97,NE,41,3.0,8.0,92,0.00,,---,0.00,VWS V14.01,2013-08-09 11:26:00,
2013-08-09 07:30:00,78.0,75.2,29.97,ENE,61,2.0,8.0,91,0.00,,---,0.00,VWS V14.01,2013-08-09 11:30:00,
2013-08-09 07:31:00,78.0,75.2,29.97,ENE,64,4.0,5.0,91,0.00,,---,0.00,VWS V14.01,2013-08-09 11:31:00,
2013-08-09 07:36:00,78.2,75.4,29.97,ENE,59,2.0,7.0,91,0.00,,---,0.00,VWS V14.01,2013-08-09 11:36:00,
2013-08-09 07:41:00,78.4,75.6,29.97,NE,54,6.0,7.0,91,0.00,,---,0.00,VWS V14.01,2013-08-09 11:41:00,
2013-08-09 07:46:00,78.5,75.3,29.97,NE,55,4.0,8.0,90,0.00,,---,0.00,VWS V14.01,2013-08-09 11:46:00,
2013-08-09 07:51:00,78.7,75.9,29.97,NE,42,3.0,8.0,91,0.00,,---,0.00,VWS V14.01,2013-08-09 11:51:00,
2013-08-09 07:56:00,78.9,75.7,29.97,NE,53,4.0,8.0,90,0.00,,---,0.00,VWS V14.01,2013-08-09 11:56:00,
2013-08-09 08:00:00,79.0,75.8,29.97,NE,42,2.0,9.0,90,0.00,,---,0.00,VWS V14.01,2013-08-09 12:00:00,
2013-08-09 08:01:00,79.0,75.8,29.97,ENE,73,4.0,5.0,90,0.00,,---,0.00,VWS V14.01,2013-08-09 12:01:00,
2013-08-09 08:06:00,79.1,75.6,29.97,ENE,70,6.0,8.0,89,0.00,,---,0.00,VWS V14.01,2013-08-09 12:06:00,
2013-08-09 08:11:00,79.1,75.6,29.97,ENE,62,5.0,8.0,89,0.00,,---,0.00,VWS V14.01,2013-08-09 12:11:00,
2013-08-09 08:16:00,79.2,75.7,29.97,ENE,60,6.0,9.0,89,0.00,,---,0.00,VWS V14.01,2013-08-09 12:16:00,
2013-08-09 08:21:00,79.4,75.9,29.97,North,5,6.0,9.0,89,0.00,,---,0.00,VWS V14.01,2013-08-09 12:21:00,
2013-08-09 08:26:00,79.7,76.2,29.97,ENE,69,4.0,9.0,89,0.00,,---,0.00,VWS V14.01,2013-08-09 12:26:00,
2013-08-09 08:30:00,79.8,75.9,29.97,NE,37,5.0,9.0,88,0.00,,---,0.00,VWS V14.01,2013-08-09 12:30:00,
2013-08-09 08:31:00,79.9,76.0,29.98,ENE,72,5.0,7.0,88,0.00,,---,0.00,VWS V14.01,2013-08-09 12:31:00,
2013-08-09 08:36:00,80.1,76.2,29.98,ENE,70,6.0,9.0,88,0.00,,---,0.00,VWS V14.01,2013-08-09 12:36:00,
2013-08-09 08:41:00,80.4,76.2,29.98,NE,47,3.0,9.0,87,0.00,,---,0.00,VWS V14.01,2013-08-09 12:41:00,
2013-08-09 08:46:00,80.8,76.2,29.98,East,88,3.0,9.0,86,0.00,,---,0.00,VWS V14.01,2013-08-09 12:46:00,
2013-08-09 08:51:00,81.2,76.3,29.99,ENE,63,3.0,9.0,85,0.00,,---,0.00,VWS V14.01,2013-08-09 12:51:00,
2013-08-09 08:56:00,81.7,76.4,29.99,ESE,115,6.0,9.0,84,0.00,,---,0.00,VWS V14.01,2013-08-09 12:56:00,
2013-08-09 09:00:00,81.9,76.6,29.99,East,85,7.0,9.0,84,0.00,,---,0.00,VWS V14.01,2013-08-09 13:00:00,
2013-08-09 09:01:00,82.0,76.7,29.99,NE,55,4.0,7.0,84,0.00,,---,0.00,VWS V14.01,2013-08-09 13:01:00,
2013-08-09 09:06:00,82.3,76.6,29.99,ENE,68,4.0,9.0,83,0.00,,---,0.00,VWS V14.01,2013-08-09 13:06:00,
2013-08-09 09:11:00,82.6,76.9,29.99,ENE,69,6.0,9.0,83,0.00,,---,0.00,VWS V14.01,2013-08-09 13:11:00,
2013-08-09 09:16:00,82.9,76.8,29.99,ENE,78,4.0,9.0,82,0.00,,---,0.00,VWS V14.01,2013-08-09 13:16:00,
2013-08-09 09:21:00,83.0,76.6,29.99,ESE,103,7.0,11.0,81,0.00,,---,0.00,VWS V14.01,2013-08-09 13:21:00,
2013-08-09 09:26:00,83.0,76.6,29.99,ENE,57,3.0,11.0,81,0.00,,---,0.00,VWS V14.01,2013-08-09 13:26:00,
2013-08-09 09:30:00,83.2,76.8,29.99,East,84,8.0,11.0,81,0.00,,---,0.00,VWS V14.01,2013-08-09 13:30:00,
2013-08-09 09:31:00,83.2,76.4,29.99,NE,54,4.0,9.0,80,0.00,,---,0.00,VWS V14.01,2013-08-09 13:31:00,
2013-08-09 09:36:00,83.2,76.4,29.99,NE,53,5.0,10.0,80,0.00,,---,0.00,VWS V14.01,2013-08-09 13:36:00,
2013-08-09 09:41:00,83.4,76.6,30.00,NE,38,7.0,10.0,80,0.00,,---,0.00,VWS V14.01,2013-08-09 13:41:00,
2013-08-09 09:46:00,83.8,77.0,30.00,ENE,65,4.0,10.0,80,0.00,,---,0.00,VWS V14.01,2013-08-09 13:46:00,
2013-08-09 09:51:00,84.3,77.5,30.00,ENE,67,1.0,10.0,80,0.00,,---,0.00,VWS V14.01,2013-08-09 13:51:00,
2013-08-09 09:56:00,84.8,76.8,30.00,ESE,111,4.0,10.0,77,0.00,,---,0.00,VWS V14.01,2013-08-09 13:56:00,
2013-08-09 10:00:00,85.0,77.0,30.00,East,86,5.0,10.0,77,0.00,,---,0.00,VWS V14.01,2013-08-09 14:00:00,
2013-08-09 10:01:00,84.9,76.5,30.00,SE,130,8.0,8.0,76,0.00,,---,0.00,VWS V14.01,2013-08-09 14:01:00,
2013-08-09 10:06:00,85.0,76.6,30.00,East,81,3.0,8.0,76,0.00,,---,0.00,VWS V14.01,2013-08-09 14:06:00,
2013-08-09 10:11:00,85.1,76.7,30.00,East,80,5.0,9.0,76,0.00,,---,0.00,VWS V14.01,2013-08-09 14:11:00,
2013-08-09 10:16:00,85.1,77.1,30.01,East,86,4.0,9.0,77,0.00,,---,0.00,VWS V14.01,2013-08-09 14:16:00,
2013-08-09 10:21:00,85.2,76.4,30.01,ESE,121,4.0,10.0,75,0.00,,---,0.00,VWS V14.01,2013-08-09 14:21:00,
2013-08-09 10:26:00,85.1,76.7,30.01,SSE,150,4.0,10.0,76,0.00,,---,0.00,VWS V14.01,2013-08-09 14:26:00,
2013-08-09 10:30:00,85.1,75.9,30.01,East,95,2.0,10.0,74,0.00,,---,0.00,VWS V14.01,2013-08-09 14:30:00,
2013-08-09 10:31:00,85.2,76.4,30.01,ESE,107,7.0,7.0,75,0.00,,---,0.00,VWS V14.01,2013-08-09 14:31:00,
2013-08-09 10:36:00,85.6,76.4,30.01,SE,127,3.0,10.0,74,0.00,,---,0.00,VWS V14.01,2013-08-09 14:36:00,
2013-08-09 10:41:00,85.6,76.4,30.01,East,98,4.0,10.0,74,0.00,,---,0.00,VWS V14.01,2013-08-09 14:41:00,
2013-08-09 10:46:00,86.1,76.0,30.01,SSE,163,5.0,10.0,72,0.00,,---,0.00,VWS V14.01,2013-08-09 14:46:00,
2013-08-09 10:51:00,86.6,76.1,30.01,ENE,74,5.0,10.0,71,0.00,,---,0.00,VWS V14.01,2013-08-09 14:51:00,
2013-08-09 10:55:00,86.6,75.7,30.01,East,86,4.0,10.0,70,0.00,,---,0.00,VWS V14.01,2013-08-09 14:55:00,
2013-08-09 11:00:00,86.8,75.4,30.01,ENE,67,2.0,10.0,69,0.00,,---,0.00,VWS V14.01,2013-08-09 15:00:00,
2013-08-09 11:05:00,87.1,76.1,30.01,East,93,9.0,10.0,70,0.00,,---,0.00,VWS V14.01,2013-08-09 15:05:00,
2013-08-09 11:10:00,87.1,74.8,30.01,ENE,66,6.0,10.0,67,0.00,,---,0.00,VWS V14.01,2013-08-09 15:10:00,
2013-08-09 11:15:00,87.1,74.8,30.01,SE,131,2.0,10.0,67,0.00,,---,0.00,VWS V14.01,2013-08-09 15:15:00,
2013-08-09 11:20:00,87.9,76.0,30.01,East,94,11.0,12.0,68,0.00,,---,0.00,VWS V14.01,2013-08-09 15:20:00,
2013-08-09 11:25:00,88.2,76.3,30.01,ESE,122,10.0,12.0,68,0.00,,---,0.00,VWS V14.01,2013-08-09 15:25:00,
2013-08-09 11:30:00,88.4,75.6,30.01,NE,40,3.0,4.0,66,0.00,,---,0.00,VWS V14.01,2013-08-09 15:30:00,
2013-08-09 11:35:00,88.5,75.7,30.01,East,90,7.0,8.0,66,0.00,,---,0.00,VWS V14.01,2013-08-09 15:35:00,
2013-08-09 11:40:00,89.1,76.3,30.01,SE,130,4.0,9.0,66,0.00,,---,0.00,VWS V14.01,2013-08-09 15:40:00,
2013-08-09 11:45:00,89.3,75.5,30.01,East,82,4.0,9.0,64,0.00,,---,0.00,VWS V14.01,2013-08-09 15:45:00,
2013-08-09 11:50:00,88.3,74.6,30.01,NE,45,4.0,10.0,64,0.00,,---,0.00,VWS V14.01,2013-08-09 15:50:00,
2013-08-09 11:55:00,87.5,74.8,30.00,ENE,60,6.0,10.0,66,0.00,,---,0.00,VWS V14.01,2013-08-09 15:55:00,
2013-08-09 12:00:00,87.9,75.6,30.00,ESE,105,2.0,6.0,67,0.00,,---,0.00,VWS V14.01,2013-08-09 16:00:00,
2013-08-09 12:05:00,88.3,75.5,30.01,ENE,67,3.0,7.0,66,0.00,,---,0.00,VWS V14.01,2013-08-09 16:05:00,
2013-08-09 12:10:00,88.5,75.2,30.01,ENE,63,2.0,8.0,65,0.00,,---,0.00,VWS V14.01,2013-08-09 16:10:00,
2013-08-09 12:15:00,88.7,75.0,30.01,East,93,3.0,8.0,64,0.00,,---,0.00,VWS V14.01,2013-08-09 16:15:00,
2013-08-09 12:21:00,89.2,76.4,30.01,ESE,120,5.0,8.0,66,0.00,,---,0.00,VWS V14.01,2013-08-09 16:21:00,
2013-08-09 12:26:00,89.6,73.4,30.01,ENE,74,3.0,8.0,59,0.00,,---,0.00,VWS V14.01,2013-08-09 16:26:00,
2013-08-09 12:30:00,89.9,74.2,30.00,East,81,2.0,8.0,60,0.00,,---,0.00,VWS V14.01,2013-08-09 16:30:00,
2013-08-09 12:31:00,89.9,75.1,30.01,ENE,60,4.0,4.0,62,0.00,,---,0.00,VWS V14.01,2013-08-09 16:31:00,
2013-08-09 12:35:00,90.2,74.4,30.01,ESE,122,3.0,9.0,60,0.00,,---,0.00,VWS V14.01,2013-08-09 16:35:00,
2013-08-09 12:40:00,90.0,74.8,30.00,ENE,62,2.0,9.0,61,0.00,,---,0.00,VWS V14.01,2013-08-09 16:40:00,
2013-08-09 12:45:00,90.3,74.5,30.00,East,86,2.0,9.0,60,0.00,,---,0.00,VWS V14.01,2013-08-09 16:45:00,
2013-08-09 12:50:00,90.4,73.6,30.00,ESE,117,4.0,9.0,58,0.00,,---,0.00,VWS V14.01,2013-08-09 16:50:00,
2013-08-09 12:55:00,89.9,74.7,30.00,ENE,67,4.0,9.0,61,0.00,,---,0.00,VWS V14.01,2013-08-09 16:55:00,
2013-08-09 13:00:00,90.1,72.8,30.00,ESE,122,3.0,9.0,57,0.00,,---,0.00,VWS V14.01,2013-08-09 17:00:00,
2013-08-09 13:01:00,90.2,73.4,30.00,ESE,119,4.0,7.0,58,0.00,,---,0.00,VWS V14.01,2013-08-09 17:01:00,
2013-08-09 13:05:00,90.4,73.6,30.00,East,101,1.0,7.0,58,0.00,,---,0.00,VWS V14.01,2013-08-09 17:05:00,
2013-08-09 13:10:00,90.7,73.4,30.00,ENE,74,3.0,7.0,57,0.00,,---,0.00,VWS V14.01,2013-08-09 17:10:00,
2013-08-09 13:15:00,90.4,74.6,30.00,ENE,75,4.0,7.0,60,0.00,,---,0.00,VWS V14.01,2013-08-09 17:15:00,
2013-08-09 13:20:00,90.8,74.0,30.00,ESE,116,3.0,7.0,58,0.00,,---,0.00,VWS V14.01,2013-08-09 17:20:00,
2013-08-09 13:25:00,91.4,74.0,30.00,East,97,1.0,7.0,57,0.00,,---,0.00,VWS V14.01,2013-08-09 17:25:00,
2013-08-09 13:30:00,91.4,73.5,29.99,ENE,57,3.0,4.0,56,0.00,,---,0.00,VWS V14.01,2013-08-09 17:30:00,
2013-08-09 13:35:00,91.1,72.7,29.99,ENE,61,3.0,5.0,55,0.00,,---,0.00,VWS V14.01,2013-08-09 17:35:00,
2013-08-09 13:40:00,91.1,73.2,29.98,NE,46,4.0,5.0,56,0.00,,---,0.00,VWS V14.01,2013-08-09 17:40:00,
2013-08-09 13:45:00,91.2,72.2,29.98,ENE,67,2.0,5.0,54,0.00,,---,0.00,VWS V14.01,2013-08-09 17:45:00,
2013-08-09 13:50:00,91.5,73.6,29.99,ESE,103,4.0,7.0,56,0.00,,---,0.00,VWS V14.01,2013-08-09 17:50:00,
2013-08-09 13:55:00,91.6,72.6,29.99,SSE,153,3.0,7.0,54,0.00,,---,0.00,VWS V14.01,2013-08-09 17:55:00,
2013-08-09 14:00:00,91.0,72.1,29.98,SSE,168,0.0,1.0,54,0.00,,---,0.00,VWS V14.01,2013-08-09 18:00:00,
2013-08-09 14:05:00,90.8,71.9,29.98,NE,53,2.0,4.0,54,0.00,,---,0.00,VWS V14.01,2013-08-09 18:05:00,
2013-08-09 14:10:00,90.1,72.3,29.98,NNE,13,2.0,4.0,56,0.00,,---,0.00,VWS V14.01,2013-08-09 18:10:00,
2013-08-09 14:15:00,89.7,71.9,29.98,NE,50,0.0,4.0,56,0.00,,---,0.00,VWS V14.01,2013-08-09 18:15:00,
2013-08-09 14:20:00,89.8,73.6,29.99,ESE,105,2.0,6.0,59,0.00,,---,0.00,VWS V14.01,2013-08-09 18:20:00,
2013-08-09 14:25:00,85.2,72.6,30.00,SSW,198,15.0,27.0,66,0.00,,---,0.00,VWS V14.01,2013-08-09 18:25:00,
2013-08-09 14:30:00,80.9,73.0,30.02,South,172,19.0,29.0,77,0.00,,---,0.00,VWS V14.01,2013-08-09 18:30:00,
2013-08-09 14:35:00,78.2,71.9,30.01,South,186,14.0,31.0,81,0.00,,---,0.00,VWS V14.01,2013-08-09 18:35:00,
2013-08-09 14:40:00,77.0,71.4,30.00,SSW,213,21.0,31.0,83,0.00,,---,0.00,VWS V14.01,2013-08-09 18:40:00,
2013-08-09 14:49:00,76.0,71.5,30.00,South,169,13.0,32.0,86,0.00,,---,0.00,VWS V14.01,2013-08-09 18:49:00,
2013-08-09 14:54:00,76.5,72.3,30.01,SSW,200,15.0,32.0,87,0.00,,---,0.00,VWS V14.01,2013-08-09 18:54:00,
2013-08-09 15:00:00,77.3,72.4,30.01,SSW,208,12.0,17.0,85,0.00,,---,0.00,VWS V14.01,2013-08-09 19:00:00,
2013-08-09 15:05:00,77.9,71.2,30.01,SSW,208,7.0,19.0,80,0.00,,---,0.00,VWS V14.01,2013-08-09 19:05:00,
2013-08-09 15:10:00,78.2,71.5,30.00,WSW,250,12.0,19.0,80,0.00,,---,0.00,VWS V14.01,2013-08-09 19:10:00,
2013-08-09 15:15:00,78.6,72.7,29.99,SW,226,18.0,19.0,82,0.00,,---,0.00,VWS V14.01,2013-08-09 19:15:00,
2013-08-09 15:19:00,78.7,72.4,29.99,SSW,208,19.0,19.0,81,0.00,,---,0.00,VWS V14.01,2013-08-09 19:19:00,
2013-08-09 15:24:00,78.7,72.8,29.99,WSW,254,5.0,19.0,82,0.00,,---,0.00,VWS V14.01,2013-08-09 19:24:00,
2013-08-09 15:29:00,78.4,71.7,29.99,WSW,248,10.0,12.0,80,0.00,,---,0.00,VWS V14.01,2013-08-09 19:29:00,
2013-08-09 15:30:00,78.4,71.7,29.99,West,267,12.0,19.0,80,0.00,,---,0.00,VWS V14.01,2013-08-09 19:30:00,
2013-08-09 15:34:00,77.5,71.2,30.00,SW,232,4.0,14.0,81,0.00,,---,0.00,VWS V14.01,2013-08-09 19:34:00,
2013-08-09 15:39:00,77.7,70.7,30.01,WSW,244,2.0,14.0,79,0.00,,---,0.00,VWS V14.01,2013-08-09 19:39:00,
2013-08-09 15:44:00,77.9,70.5,30.03,NE,38,4.0,14.0,78,0.00,,---,0.00,VWS V14.01,2013-08-09 19:44:00,
2013-08-09 15:49:00,77.6,71.3,30.03,NNE,12,9.0,16.0,81,0.00,,---,0.00,VWS V14.01,2013-08-09 19:49:00,
2013-08-09 15:54:00,75.8,72.0,30.03,WSW,254,2.0,16.0,88,0.02,,---,0.02,VWS V14.01,2013-08-09 19:54:00,
2013-08-09 15:59:00,75.4,70.6,30.03,NW,325,3.0,3.0,85,0.02,,---,0.02,VWS V14.01,2013-08-09 19:59:00,
2013-08-09 16:00:00,75.4,70.6,30.03,NNW,344,3.0,16.0,85,0.02,,---,0.02,VWS V14.01,2013-08-09 20:00:00,
2013-08-09 16:04:00,74.3,70.5,30.03,NW,306,10.0,20.0,88,0.02,,---,0.02,VWS V14.01,2013-08-09 20:04:00,
2013-08-09 16:09:00,73.6,69.8,30.03,North,360,5.0,20.0,88,0.03,,---,0.03,VWS V14.01,2013-08-09 20:09:00,
2013-08-09 16:10:00,73.6,69.8,30.03,North,355,6.0,20.0,88,0.03,,---,0.03,VWS V14.01,2013-08-09 20:10:00,
2013-08-09 16:15:00,72.9,69.8,30.02,NNW,331,10.0,20.0,90,0.04,,---,0.04,VWS V14.01,2013-08-09 20:15:00,
2013-08-09 16:20:00,72.5,69.7,30.02,WNW,303,11.0,20.0,91,0.04,,---,0.04,VWS V14.01,2013-08-09 20:20:00,
2013-08-09 16:25:00,72.2,69.4,30.02,NNW,348,11.0,20.0,91,0.05,,---,0.05,VWS V14.01,2013-08-09 20:25:00,
2013-08-09 16:30:00,72.0,69.6,30.02,NW,325,4.0,5.0,92,0.05,,---,0.05,VWS V14.01,2013-08-09 20:30:00,
2013-08-09 16:35:00,72.2,70.1,30.02,NNW,348,5.0,9.0,93,0.05,,---,0.05,VWS V14.01,2013-08-09 20:35:00,
2013-08-09 16:40:00,72.3,70.2,30.03,North,360,5.0,10.0,93,0.07,,---,0.07,VWS V14.01,2013-08-09 20:40:00,
2013-08-09 16:45:00,72.2,70.4,30.03,NNE,19,2.0,10.0,94,0.09,,---,0.09,VWS V14.01,2013-08-09 20:45:00,
2013-08-09 16:50:00,72.3,70.5,30.03,NW,317,8.0,10.0,94,0.13,,---,0.13,VWS V14.01,2013-08-09 20:50:00,
2013-08-09 16:55:00,72.3,70.8,30.02,NNE,19,5.0,10.0,95,0.16,,---,0.16,VWS V14.01,2013-08-09 20:55:00,
2013-08-09 17:00:00,72.5,71.0,30.02,NNE,24,3.0,4.0,95,0.15,,---,0.17,VWS V14.01,2013-08-09 21:00:00,
2013-08-09 17:05:00,72.5,71.0,30.02,East,93,0.0,4.0,95,0.16,,---,0.18,VWS V14.01,2013-08-09 21:05:00,
2013-08-09 17:10:00,72.5,71.0,30.02,ENE,57,2.0,4.0,95,0.17,,---,0.19,VWS V14.01,2013-08-09 21:10:00,
2013-08-09 17:15:00,72.6,71.1,30.01,NNE,26,4.0,5.0,95,0.18,,---,0.20,VWS V14.01,2013-08-09 21:15:00,
2013-08-09 17:20:00,72.9,71.4,30.00,North,5,6.0,8.0,95,0.19,,---,0.21,VWS V14.01,2013-08-09 21:20:00,
2013-08-09 17:25:00,73.0,71.8,30.00,NNE,20,4.0,9.0,96,0.20,,---,0.22,VWS V14.01,2013-08-09 21:25:00,
2013-08-09 17:30:00,73.2,71.7,30.00,North,360,4.0,6.0,95,0.17,,---,0.22,VWS V14.01,2013-08-09 21:30:00,
2013-08-09 17:35:00,73.5,72.0,29.99,NNE,31,4.0,7.0,95,0.18,,---,0.23,VWS V14.01,2013-08-09 21:35:00,
2013-08-09 17:40:00,73.7,72.2,29.99,NNE,25,4.0,7.0,95,0.18,,---,0.23,VWS V14.01,2013-08-09 21:40:00,
2013-08-09 17:44:00,74.0,72.5,29.99,NNE,22,2.0,7.0,95,0.18,,---,0.23,VWS V14.01,2013-08-09 21:44:00,
2013-08-09 17:49:00,74.3,72.5,29.99,NNE,12,2.0,7.0,94,0.18,,---,0.23,VWS V14.01,2013-08-09 21:49:00,
2013-08-09 17:54:00,74.4,72.2,29.99,North,5,5.0,7.0,93,0.18,,---,0.23,VWS V14.01,2013-08-09 21:54:00,
2013-08-09 17:59:00,74.5,72.3,29.99,North,9,3.0,3.0,93,0.06,,---,0.23,VWS V14.01,2013-08-09 21:59:00,
2013-08-09 18:00:00,74.5,72.3,29.99,North,9,3.0,7.0,93,0.18,,---,0.23,VWS V14.01,2013-08-09 22:00:00,
2013-08-09 18:04:00,74.7,72.9,29.99,NE,42,3.0,4.0,94,0.06,,---,0.23,VWS V14.01,2013-08-09 22:04:00,
2013-08-09 18:10:00,74.9,72.7,29.99,NNE,32,2.0,5.0,93,0.06,,---,0.23,VWS V14.01,2013-08-09 22:10:00,
2013-08-09 18:14:00,75.1,72.9,29.99,NE,47,3.0,7.0,93,0.06,,---,0.23,VWS V14.01,2013-08-09 22:14:00,
2013-08-09 18:19:00,75.3,73.1,29.99,NNE,22,3.0,7.0,93,0.06,,---,0.23,VWS V14.01,2013-08-09 22:19:00,
2013-08-09 18:24:00,75.7,73.2,29.98,NNE,20,4.0,7.0,92,0.06,,---,0.23,VWS V14.01,2013-08-09 22:24:00,
2013-08-09 18:29:00,76.0,73.2,29.98,NE,49,4.0,4.0,91,0.01,,---,0.23,VWS V14.01,2013-08-09 22:29:00,
2013-08-09 18:30:00,76.0,73.2,29.98,NE,46,4.0,7.0,91,0.06,,---,0.23,VWS V14.01,2013-08-09 22:30:00,
2013-08-09 18:34:00,76.5,73.3,29.98,North,10,1.0,5.0,90,0.01,,---,0.23,VWS V14.01,2013-08-09 22:34:00,
2013-08-09 18:39:00,77.0,73.8,29.98,NE,55,3.0,5.0,90,0.01,,---,0.23,VWS V14.01,2013-08-09 22:39:00,
2013-08-09 18:44:00,77.2,73.7,29.99,ESE,107,1.0,5.0,89,0.01,,---,0.23,VWS V14.01,2013-08-09 22:44:00,
2013-08-09 18:49:00,77.3,73.8,29.99,ESE,105,2.0,5.0,89,0.01,,---,0.23,VWS V14.01,2013-08-09 22:49:00,
2013-08-09 18:54:00,77.3,73.8,29.99,East,90,4.0,7.0,89,0.01,,---,0.23,VWS V14.01,2013-08-09 22:54:00,
2013-08-09 18:59:00,77.5,74.0,29.99,ENE,76,2.0,7.0,89,0.01,,---,0.23,VWS V14.01,2013-08-09 22:59:00,
2013-08-09 19:00:00,77.5,74.0,29.99,ENE,76,2.0,7.0,89,0.01,,---,0.23,VWS V14.01,2013-08-09 23:00:00,
2013-08-09 19:04:00,77.5,74.3,29.99,East,90,4.0,5.0,90,0.00,,---,0.23,VWS V14.01,2013-08-09 23:04:00,
2013-08-09 19:09:00,77.6,74.4,30.00,East,93,3.0,6.0,90,0.00,,---,0.23,VWS V14.01,2013-08-09 23:09:00,
2013-08-09 19:14:00,77.6,74.1,30.00,East,85,5.0,7.0,89,0.00,,---,0.23,VWS V14.01,2013-08-09 23:14:00,
2013-08-09 19:19:00,77.5,74.3,30.00,ENE,71,2.0,7.0,90,0.00,,---,0.23,VWS V14.01,2013-08-09 23:19:00,
2013-08-09 19:24:00,77.5,74.3,30.00,ENE,66,1.0,7.0,90,0.00,,---,0.23,VWS V14.01,2013-08-09 23:24:00,
2013-08-09 19:29:00,77.5,74.7,30.00,NE,44,2.0,7.0,91,0.00,,---,0.23,VWS V14.01,2013-08-09 23:29:00,
2013-08-09 19:30:00,77.5,74.7,30.00,NE,44,2.0,7.0,91,0.00,,---,0.23,VWS V14.01,2013-08-09 23:30:00,
2013-08-09 19:34:00,77.6,74.8,30.00,NE,55,4.0,5.0,91,0.00,,---,0.23,VWS V14.01,2013-08-09 23:34:00,
2013-08-09 19:39:00,77.5,74.3,30.00,NE,49,2.0,5.0,90,0.00,,---,0.23,VWS V14.01,2013-08-09 23:39:00,
2013-08-09 19:44:00,77.5,74.0,30.00,ENE,57,4.0,6.0,89,0.00,,---,0.23,VWS V14.01,2013-08-09 23:44:00,
2013-08-09 19:49:00,77.4,73.9,30.01,NE,55,4.0,6.0,89,0.00,,---,0.23,VWS V14.01,2013-08-09 23:49:00,
2013-08-09 19:54:00,77.3,73.5,30.01,NE,35,5.0,8.0,88,0.00,,---,0.23,VWS V14.01,2013-08-09 23:54:00,
2013-08-09 19:59:00,77.2,73.7,30.01,NE,44,3.0,4.0,89,0.00,,---,0.23,VWS V14.01,2013-08-09 23:59:00,
2013-08-09 20:00:00,77.2,73.7,30.00,ENE,67,4.0,8.0,89,0.00,,---,0.23,VWS V14.01,2013-08-10 00:00:00,
2013-08-09 20:04:00,77.1,73.6,30.01,ENE,76,3.0,8.0,89,0.00,,---,0.23,VWS V14.01,2013-08-10 00:04:00,
2013-08-09 20:09:00,77.0,73.8,30.01,NE,36,5.0,8.0,90,0.00,,---,0.23,VWS V14.01,2013-08-10 00:09:00,
2013-08-09 20:14:00,76.9,73.8,30.02,NE,56,5.0,9.0,90,0.00,,---,0.23,VWS V14.01,2013-08-10 00:14:00,
2013-08-09 20:19:00,76.9,73.8,30.02,ENE,63,5.0,10.0,90,0.00,,---,0.23,VWS V14.01,2013-08-10 00:19:00,
2013-08-09 20:24:00,76.8,73.7,30.02,ENE,78,7.0,10.0,90,0.00,,---,0.23,VWS V14.01,2013-08-10 00:24:00,
2013-08-09 20:29:00,76.7,73.9,30.02,NNE,26,6.0,6.0,91,0.00,,---,0.23,VWS V14.01,2013-08-10 00:29:00,
2013-08-09 20:30:00,76.7,73.9,30.02,NE,38,5.0,10.0,91,0.00,,---,0.23,VWS V14.01,2013-08-10 00:30:00,
2013-08-09 20:34:00,76.6,73.4,30.02,ENE,78,5.0,9.0,90,0.00,,---,0.23,VWS V14.01,2013-08-10 00:34:00,
2013-08-09 20:39:00,76.6,73.8,30.02,ENE,70,8.0,10.0,91,0.00,,---,0.23,VWS V14.01,2013-08-10 00:39:00,
2013-08-09 20:44:00,76.5,73.7,30.02,ENE,59,6.0,10.0,91,0.00,,---,0.23,VWS V14.01,2013-08-10 00:44:00,
2013-08-09 20:49:00,76.5,73.7,30.03,ENE,71,3.0,10.0,91,0.00,,---,0.23,VWS V14.01,2013-08-10 00:49:00,
2013-08-09 20:54:00,76.6,73.4,30.03,NNE,22,5.0,10.0,90,0.00,,---,0.23,VWS V14.01,2013-08-10 00:54:00,
2013-08-09 20:59:00,76.6,73.4,30.03,NE,44,5.0,8.0,90,0.00,,---,0.23,VWS V14.01,2013-08-10 00:59:00,
2013-08-09 21:00:00,76.6,73.4,30.03,NNW,346,8.0,10.0,90,0.00,,---,0.23,VWS V14.01,2013-08-10 01:00:00,
2013-08-09 21:04:00,76.5,73.3,30.03,NE,38,3.0,9.0,90,0.00,,---,0.23,VWS V14.01,2013-08-10 01:04:00,
2013-08-09 21:09:00,76.4,73.2,30.03,NE,34,2.0,9.0,90,0.00,,---,0.23,VWS V14.01,2013-08-10 01:09:00,
2013-08-09 21:14:00,76.3,73.5,30.03,NE,36,4.0,9.0,91,0.00,,---,0.23,VWS V14.01,2013-08-10 01:14:00,
2013-08-09 21:19:00,76.2,73.1,30.03,ENE,67,3.0,9.0,90,0.00,,---,0.23,VWS V14.01,2013-08-10 01:19:00,
2013-08-09 21:24:00,76.3,73.5,30.03,NNE,28,3.0,9.0,91,0.00,,---,0.23,VWS V14.01,2013-08-10 01:24:00,
2013-08-09 21:29:00,76.4,73.6,30.03,ENE,62,3.0,3.0,91,0.00,,---,0.23,VWS V14.01,2013-08-10 01:29:00,
2013-08-09 21:30:00,76.4,73.2,30.03,ENE,70,3.0,9.0,90,0.00,,---,0.23,VWS V14.01,2013-08-10 01:30:00,
2013-08-09 21:34:00,76.6,73.4,30.03,NE,43,3.0,8.0,90,0.00,,---,0.23,VWS V14.01,2013-08-10 01:34:00,
2013-08-09 21:39:00,76.6,73.4,30.04,NE,50,4.0,10.0,90,0.00,,---,0.23,VWS V14.01,2013-08-10 01:39:00,
2013-08-09 21:44:00,76.7,73.9,30.04,NE,56,6.0,10.0,91,0.00,,---,0.23,VWS V14.01,2013-08-10 01:44:00,
2013-08-09 21:49:00,76.7,73.6,30.04,NE,45,5.0,11.0,90,0.00,,---,0.23,VWS V14.01,2013-08-10 01:49:00,
2013-08-09 21:54:00,76.7,73.9,30.04,ENE,59,3.0,11.0,91,0.00,,---,0.23,VWS V14.01,2013-08-10 01:54:00,
2013-08-09 21:59:00,76.6,74.1,30.04,NE,42,3.0,5.0,92,0.00,,---,0.23,VWS V14.01,2013-08-10 01:59:00,
2013-08-09 22:00:00,76.6,74.1,30.04,NE,44,5.0,11.0,92,0.00,,---,0.23,VWS V14.01,2013-08-10 02:00:00,
2013-08-09 22:04:00,76.6,74.1,30.04,NE,38,6.0,7.0,92,0.00,,---,0.23,VWS V14.01,2013-08-10 02:04:00,
2013-08-09 22:09:00,76.5,74.0,30.04,NE,41,2.0,7.0,92,0.00,,---,0.23,VWS V14.01,2013-08-10 02:09:00,
2013-08-09 22:14:00,76.5,74.0,30.04,NE,45,5.0,7.0,92,0.00,,---,0.23,VWS V14.01,2013-08-10 02:14:00,
2013-08-09 22:19:00,76.5,74.3,30.04,NE,34,4.0,7.0,93,0.00,,---,0.23,VWS V14.01,2013-08-10 02:19:00,
2013-08-09 22:24:00,76.6,74.4,30.04,NNE,32,1.0,7.0,93,0.00,,---,0.23,VWS V14.01,2013-08-10 02:24:00,
2013-08-09 22:29:00,76.6,74.4,30.04,NE,46,3.0,3.0,93,0.00,,---,0.23,VWS V14.01,2013-08-10 02:29:00,
2013-08-09 22:30:00,76.6,74.4,30.04,NE,46,3.0,7.0,93,0.00,,---,0.23,VWS V14.01,2013-08-10 02:30:00,
2013-08-09 22:34:00,76.6,74.4,30.04,ENE,74,3.0,6.0,93,0.00,,---,0.23,VWS V14.01,2013-08-10 02:34:00,
2013-08-09 22:39:00,76.6,74.4,30.04,NE,40,2.0,6.0,93,0.00,,---,0.23,VWS V14.01,2013-08-10 02:39:00,
2013-08-09 22:44:00,76.6,74.4,30.04,ENE,71,6.0,8.0,93,0.00,,---,0.23,VWS V14.01,2013-08-10 02:44:00,
2013-08-09 22:49:00,76.7,74.5,30.04,ENE,72,3.0,8.0,93,0.00,,---,0.23,VWS V14.01,2013-08-10 02:49:00,
2013-08-09 22:54:00,76.7,74.5,30.04,NE,41,4.0,8.0,93,0.00,,---,0.23,VWS V14.01,2013-08-10 02:54:00,
2013-08-09 22:59:00,76.7,74.2,30.04,NE,46,3.0,8.0,92,0.00,,---,0.23,VWS V14.01,2013-08-10 02:59:00,
2013-08-09 23:00:00,76.7,74.2,30.04,NE,46,3.0,8.0,92,0.00,,---,0.23,VWS V14.01,2013-08-10 03:00:00,
2013-08-09 23:04:00,76.8,74.3,30.04,NE,55,3.0,6.0,92,0.00,,---,0.23,VWS V14.01,2013-08-10 03:04:00,
2013-08-09 23:09:00,76.8,74.3,30.04,NE,52,4.0,7.0,92,0.00,,---,0.23,VWS V14.01,2013-08-10 03:09:00,
2013-08-09 23:14:00,76.9,74.4,30.05,NE,46,4.0,7.0,92,0.00,,---,0.23,VWS V14.01,2013-08-10 03:14:00,
2013-08-09 23:19:00,76.9,74.4,30.05,NE,48,4.0,8.0,92,0.00,,---,0.23,VWS V14.01,2013-08-10 03:19:00,
2013-08-09 23:24:00,76.9,74.4,30.04,ENE,63,5.0,8.0,92,0.00,,---,0.23,VWS V14.01,2013-08-10 03:24:00,
2013-08-09 23:29:00,76.9,74.1,30.05,ENE,69,5.0,8.0,91,0.00,,---,0.23,VWS V14.01,2013-08-10 03:29:00,
2013-08-09 23:30:00,76.9,74.1,30.05,ENE,71,4.0,8.0,91,0.00,,---,0.23,VWS V14.01,2013-08-10 03:30:00,
2013-08-09 23:34:00,77.0,74.2,30.05,East,86,5.0,8.0,91,0.00,,---,0.23,VWS V14.01,2013-08-10 03:34:00,
2013-08-09 23:39:00,77.0,74.2,30.05,NE,43,2.0,8.0,91,0.00,,---,0.23,VWS V14.01,2013-08-10 03:39:00,
2013-08-09 23:44:00,77.0,74.2,30.05,East,86,4.0,8.0,91,0.00,,---,0.23,VWS V14.01,2013-08-10 03:44:00,
2013-08-09 23:49:00,77.0,74.2,30.05,East,85,8.0,8.0,91,0.00,,---,0.23,VWS V14.01,2013-08-10 03:49:00,
2013-08-09 23:54:00,77.1,74.3,30.05,ENE,74,5.0,9.0,91,0.00,,---,0.23,VWS V14.01,2013-08-10 03:54:00,
2013-08-09 23:59:00,77.1,73.9,30.05,ENE,63,3.0,9.0,90,0.00,,---,0.23,VWS V14.01,2013-08-10 03:59:00,